This is the latest recevied weather packets stored in our database for station/object N4QB-13. If no packets are shown the sender has not sent any weather packets the latest 10 day(s).
| Time | Temp. | Humidity | Pressure | Rain* | Wind** | Luminosity | Snow |
|---|---|---|---|---|---|---|---|
| 1777413028 | 29.44° C | 45% | 1015.5 hPa | 0 mm | - | 171 W/m² | - |
| 1777412728 | 28.89° C | 45% | 1015.6 hPa | 0 mm | - | 170 W/m² | - |
| 1777412426 | 29.44° C | 45% | 1015.7 hPa | 0 mm | - | 158 W/m² | - |
| 1777412125 | 29.44° C | 45% | 1015.7 hPa | 0 mm | - | 148 W/m² | - |
| 1777411821 | 29.44° C | 45% | 1015.6 hPa | 0 mm | - | 163 W/m² | - |
| 1777411519 | 30° C | 45% | 1015.6 hPa | 0 mm | - | 223 W/m² | - |
| 1777411215 | 29.44° C | 46% | 1015.7 hPa | 0 mm | - | 277 W/m² | - |
| 1777410909 | 29.44° C | 46% | 1015.7 hPa | 0 mm | - | 330 W/m² | - |
| 1777410603 | 30° C | 46% | 1015.9 hPa | 0 mm | - | 355 W/m² | - |
| 1777410302 | 30° C | 46% | 1015.8 hPa | 0 mm | - | 352 W/m² | - |
| 1777409997 | 30° C | 45% | 1016 hPa | 0 mm | - | 368 W/m² | - |
| 1777409692 | 30° C | 46% | 1015.9 hPa | 0 mm | - | 356 W/m² | - |
| 1777409389 | 29.44° C | 48% | 1016 hPa | 0 mm | - | 363 W/m² | - |
| 1777409084 | 28.89° C | 48% | 1016.3 hPa | 0 mm | - | 435 W/m² | - |
| 1777408781 | 29.44° C | 48% | 1016.4 hPa | 0 mm | - | 311 W/m² | - |
| 1777408477 | 29.44° C | 48% | 1016.3 hPa | 0 mm | - | 248 W/m² | - |
| 1777408172 | 29.44° C | 48% | 1016.4 hPa | 0 mm | - | 427 W/m² | - |
| 1777407868 | 28.89° C | 48% | 1016.7 hPa | 0 mm | - | 323 W/m² | - |
| 1777407566 | 28.89° C | 48% | 1016.8 hPa | 0 mm | - | 205 W/m² | - |
| 1777407265 | 30.56° C | 46% | 1016.7 hPa | 0 mm | - | 333 W/m² | - |
| 1777406964 | 30° C | 48% | 1016.7 hPa | 0 mm | - | 408 W/m² | - |
| 1777406659 | 28.89° C | 47% | 1017.1 hPa | 0 mm | - | 381 W/m² | - |
| 1777406355 | 28.89° C | 47% | 1016.9 hPa | 0 mm | - | 443 W/m² | - |
| 1777406055 | 28.89° C | 48% | 1017 hPa | 0 mm | - | 430 W/m² | - |
| 1777405752 | 28.89° C | 48% | 1016.9 hPa | 0 mm | - | 283 W/m² | - |
* Rain latest hour (hover to see other rain measurements)
** Current wind speed in m/s (hover to see current wind gust speed)